Find Starlink 36801

NORAD ID: 67888 Int'l Des: 2026-035 Owner: SPXS Country: US Constellation: starlink operational
LEOCIRCULARRETROGRADE

Current View

Loading 3D Globe...

About Starlink 36801

Description loading...

Upcoming Passes

Passes for default location (London). Set your location on the main map for personalized predictions.

Altitude History

Loading altitude history...

Two-Line Element Set

1 67888U 26035K 26146.36922034 .00019312 00000-0 59908-3 0 9991
2 67888 97.2850 79.8924 0002341 103.4064 256.7440 15.33437878 15897
Epoch: May 26, 2026 • Age: 13 hours

Current Status

Altitude 477.4 km
Velocity 7.63 km/s
Sub-Earth Point 81.28°N, 173.6°E
Launch Date Feb 21, 2026
Age 0.2 years
Type internet

Technical Details

Classification Payload
Mass 575.00 kg
Dry Mass 530.00 kg
Total Mass 575.00 kg
Length 0.30 m
Diameter 4.10 m
Span 29.00 m
Shape Box + pan
Manufacturer SPXS
Bus Type Starlink V2MO
Phase Status In Orbit
Owner/State SPXS/US

Most Searched